LB7PJ Weather Reports


time (UTC)temp
C
wind
direction
speed
KPH
gust
KPH
rain 1hr
cm
rain 24hr
cm
rain mn
cm
humidity
%
barometer
mb
20260505183002 7 264 8.0 0.0 0.00 0.00 0.00 61 1009.9
20260505181502 7 264 8.0 0.0 0.00 0.00 0.00 61 1009.9
20260505180002 8 258 8.0 0.0 0.00 0.00 0.00 61 1009.9
20260505174502 8 258 8.0 0.0 0.00 0.00 0.00 61 1009.9
20260505173002 8 258 8.0 0.0 0.00 0.00 0.00 61 1009.9
20260505171502 8 258 8.0 0.0 0.00 0.00 0.00 61 1009.9
20260505170002 8 258 8.0 0.0 0.00 0.00 0.00 61 1009.9
20260505164502 8 258 8.0 0.0 0.00 0.00 0.00 61 1009.9
20260505163002 8 258 8.0 0.0 0.00 0.00 0.00 61 1009.9
20260505161502 8 256 8.0 0.0 0.00 0.00 0.00 61 1009.9
20260505153002 8 280 6.4 0.0 0.00 0.00 0.00 61 1009.9
20260505151501 8 280 6.4 0.0 0.00 0.00 0.00 61 1009.9
20260505124501 8 278 6.4 0.0 0.00 0.00 0.00 61 1009.9
20260505123002 8 280 6.4 0.0 0.00 0.00 0.00 61 1009.9
20260505121501 8 280 6.4 0.0 0.00 0.00 0.00 61 1009.9
20260505120003 7 289 6.4 0.0 0.00 0.00 0.00 61 1009.9
20260505114501 7 289 6.4 0.0 0.00 0.00 0.00 61 1009.9
20260505113002 7 289 6.4 0.0 0.00 0.00 0.00 61 1009.9
20260505111501 7 289 6.4 0.0 0.00 0.00 0.00 61 1009.9
20260505101502 6 292 8.0 0.0 0.00 0.00 0.00 61 1009.9
20260505100002 6 290 6.4 0.0 0.00 0.00 0.00 61 1009.9
20260505094502 6 290 6.4 0.0 0.00 0.00 0.00 61 1009.9
20260505093001 6 290 6.4 0.0 0.00 0.00 0.00 61 1009.9
20260505091502 6 290 6.4 0.0 0.00 0.00 0.00 61 1009.9
20260505090002 6 290 6.4 0.0 0.00 0.00 0.00 61 1009.9
20260505084502 5 300 8.0 0.0 0.00 0.00 0.00 61 1009.9
20260505083002 5 300 8.0 0.0 0.00 0.00 0.00 61 1009.9
20260505081502 3 300 8.0 0.0 0.00 0.00 0.00 61 1009.9
20260505080002 3 300 8.0 0.0 0.00 0.00 0.00 61 1009.9
20260505074502 3 300 8.0 0.0 0.00 0.00 0.00 61 1009.9
20260505073001 2 309 9.7 0.0 0.00 0.00 0.00 61 1009.9
20260505071502 2 309 9.7 0.0 0.00 0.00 0.00 61 1009.9
20260505070001 2 312 8.0 0.0 0.00 0.00 0.00 61 1009.9
20260505064502 2 312 8.0 0.0 0.00 0.00 0.00 61 1009.9
20260505063002 2 312 8.0 0.0 0.00 0.00 0.00 61 1009.9
20260505061502 0 318 8.0 0.0 0.00 0.00 0.00 61 1009.9
20260505060002 0 318 8.0 0.0 0.00 0.00 0.00 61 1009.9
20260505053002 0 316 9.7 0.0 0.00 0.00 0.00 61 1009.9
20260505051501 0 316 9.7 0.0 0.00 0.00 0.00 61 1009.9
20260505041501 0 300 11.3 0.0 0.00 0.00 0.00 61 1009.9
20260505040002 0 300 11.3 0.0 0.00 0.00 0.00 61 1009.9
20260505034501 0 297 11.3 0.0 0.00 0.00 0.00 61 1009.9
20260505033002 0 297 11.3 0.0 0.00 0.00 0.00 61 1009.9
20260505031501 0 297 11.3 0.0 0.00 0.00 0.00 61 1009.9
20260505030002 0 297 11.3 0.0 0.00 0.00 0.00 61 1009.9
20260505024501 0 296 11.3 0.0 0.00 0.00 0.00 61 1009.9
20260505023002 0 296 11.3 0.0 0.00 0.00 0.00 61 1009.9
20260505021502 0 296 11.3 0.0 0.00 0.00 0.00 61 1009.9
20260505020003 0 296 12.9 0.0 0.00 0.00 0.00 61 1009.9
20260505014502 0 296 12.9 0.0 0.00 0.00 0.00 61 1009.9
20260505013002 0 296 12.9 0.0 0.00 0.00 0.00 61 1009.9
20260505011502 0 296 12.9 0.0 0.00 0.00 0.00 61 1009.9
20260505010002 0 296 12.9 0.0 0.00 0.00 0.00 61 1009.9
20260505004501 1 289 12.9 0.0 0.00 0.00 0.00 61 1009.9
20260505003002 1 289 12.9 0.0 0.00 0.00 0.00 61 1009.9
20260505001502 1 289 12.9 0.0 0.00 0.00 0.00 61 1009.9
20260505000001 1 289 12.9 0.0 0.00 0.00 0.00 61 1009.9
20260504234502 1 289 12.9 0.0 0.00 0.00 0.00 61 1009.9
20260504233001 1 288 8.0 0.0 0.00 0.00 0.00 61 1009.9
20260504231502 1 288 8.0 0.0 0.00 0.00 0.00 61 1009.9
20260504230001 1 288 8.0 0.0 0.00 0.00 0.00 61 1009.9
20260504224502 1 288 8.0 0.0 0.00 0.00 0.00 61 1009.9
20260504223001 1 288 8.0 0.0 0.00 0.00 0.00 61 1009.9
20260504221502 2 282 8.0 0.0 0.00 0.00 0.00 61 1009.9
20260504220002 2 282 8.0 0.0 0.00 0.00 0.00 61 1009.9
20260504214502 3 280 4.8 0.0 0.00 0.00 0.00 61 1009.9
20260504213002 3 280 4.8 0.0 0.00 0.00 0.00 61 1009.9
20260504211502 3 280 4.8 0.0 0.00 0.00 0.00 61 1009.9
20260504210002 3 280 4.8 0.0 0.00 0.00 0.00 61 1009.9
20260504204502 3 280 4.8 0.0 0.00 0.00 0.00 61 1009.9
20260504203002 5 265 4.8 0.0 0.00 0.00 0.00 61 1009.9
20260504201502 5 265 4.8 0.0 0.00 0.00 0.00 61 1009.9
20260504200002 7 257 3.2 0.0 0.00 0.00 0.00 61 1009.9
20260504194502 7 257 3.2 0.0 0.00 0.00 0.00 61 1009.9
20260504193002 7 257 3.2 0.0 0.00 0.00 0.00 61 1009.9
20260504191501 8 252 3.2 0.0 0.00 0.00 0.00 61 1009.9
20260504190002 8 252 3.2 0.0 0.00 0.00 0.00 61 1009.9
20260504184501 10 277 3.2 0.0 0.00 0.00 0.00 61 1009.9